H1 CPF 2 NER 2025 12 13 9 347 01 glonass135 H2 1600801 9135 41330 2025 12 13 0 0 0 2025 12 16 23 45 0 900 1 1 0 0 0 1 H9 10 0 61022 0.00000 0 -12234566.081 -22144178.633 3453943.167 10 0 61022 900.00000 0 -12028738.979 -21535884.428 6598869.159 10 0 61022 1800.00000 0 -11543081.422 -20648086.226 9616002.320 10 0 61022 2700.00000 0 -10751614.989 -19532707.113 12446929.534 10 0 61022 3600.00000 0 -9640184.484 -18247717.960 15036841.185 10 0 61022 4500.00000 0 -8207304.458 -16854654.906 17335582.551 10 0 61022 5400.00000 0 -6464482.164 -15416007.838 19298616.177 10 0 61022 6300.00000 0 -4436002.328 -13992588.439 20887877.559 10 0 61022 7200.00000 0 -2158181.210 -12640986.996 22072508.357 10 0 61022 8100.00000 0 321880.800 -11411223.456 22829453.628 10 0 61022 9000.00000 0 2947998.286 -10344690.116 23143911.886 10 0 61022 9900.00000 0 5656983.184 -9472471.430 23009629.297 10 0 61022 10800.00000 0 8381026.171 -8814110.937 22429031.966 10 0 61022 11700.00000 0 11050280.245 -8376877.015 21413192.996 10 0 61022 12600.00000 0 13595540.885 -8155558.638 19981633.842 10 0 61022 13500.00000 0 15950912.706 -8132800.436 18161962.431 10 0 61022 14400.00000 0 18056352.491 -8279963.853 15989353.549 10 0 61022 15300.00000 0 19859982.864 -8558479.122 13505880.033 10 0 61022 16200.00000 0 21320079.871 -8921631.894 10759706.418 10 0 61022 17100.00000 0 22406650.775 -9316709.649 7804159.619 10 0 61022 18000.00000 0 23102535.124 -9687417.305 4696694.100 10 0 61022 18900.00000 0 23403982.006 -9976459.455 1497771.520 10 0 61022 19800.00000 0 23320678.442 -10128179.012 -1730322.985 10 0 61022 20700.00000 0 22875227.186 -10091139.090 -4924703.966 10 0 61022 21600.00000 0 22102095.819 -9820537.035 -8023123.249 10 0 61022 22500.00000 0 21046081.712 -9280346.354 -10965196.407 10 0 61022 23400.00000 0 19760358.357 -8445093.909 -13693592.650 10 0 61022 24300.00000 0 18304186.516 -7301195.294 -16155163.551 10 0 61022 25200.00000 0 16740387.960 -5847790.387 -18301987.400 10 0 61022 26100.00000 0 15132689.589 -4097042.538 -20092307.991 10 0 61022 27000.00000 0 13543050.940 -2073887.919 -21491349.102 10 0 61022 27900.00000 0 12029088.345 184754.957 -22471988.819 10 0 61022 28800.00000 0 10641704.478 2631282.609 -23015280.926 10 0 61022 29700.00000 0 9423022.722 5209156.494 -23110813.933 10 0 61022 30600.00000 0 8404712.388 7855032.219 -22756901.667 10 0 61022 31500.00000 0 7606773.935 10501179.044 -21960602.763 10 0 61022 32400.00000 0 7036833.522 13078088.805 -20737569.729 10 0 61022 33300.00000 0 6689974.637 15517165.772 -19111731.497 10 0 61022 34200.00000 0 6549111.849 17753385.865 -17114816.493 10 0 61022 35100.00000 0 6585888.981 19727815.204 -14785726.200 10 0 61022 36000.00000 0 6762062.109 21389884.128 -12169771.879 10 0 61022 36900.00000 0 7031307.634 22699323.132 -9317789.667 10 0 61022 37800.00000 0 7341378.083 23627681.437 -6285151.426 10 0 61022 38700.00000 0 7636513.968 24159366.385 -3130690.615 10 0 61022 39600.00000 0 7860009.574 24292161.775 84436.016 10 0 61022 40500.00000 0 7956824.336 24037204.976 3297929.003 10 0 61022 41400.00000 0 7876129.807 23418425.077 6447546.478 10 0 61022 42300.00000 0 7573685.079 22471466.569 9472301.350 10 0 61022 43200.00000 0 7013940.847 21242144.309 12313632.791 10 0 61022 44100.00000 0 6171783.670 19784494.658 14916530.081 10 0 61022 45000.00000 0 5033846.996 18158504.243 17230587.861 10 0 61022 45900.00000 0 3599333.446 16427610.816 19210973.320 10 0 61022 46800.00000 0 1880313.020 14656079.890 20819287.489 10 0 61022 47700.00000 0 -98516.585 12906365.751 22024304.798 10 0 61022 48600.00000 0 -2300599.245 11236565.990 22802577.244 10 0 61022 49500.00000 0 -4678789.283 9698074.728 23138891.867 10 0 61022 50400.00000 0 -7177069.362 8333531.659 23026572.704 10 0 61022 51300.00000 0 -9732648.245 7175151.872 22467621.064 10 0 61022 52200.00000 0 -12278353.463 6243505.923 21472690.653 10 0 61022 53100.00000 0 -14745221.302 5546801.161 20060896.941 10 0 61022 54000.00000 0 -17065177.935 5080694.716 18259463.135 10 0 61022 54900.00000 0 -19173701.127 4828646.521 16103208.060 10 0 61022 55800.00000 0 -21012351.977 4762798.179 13633884.400 10 0 61022 56700.00000 0 -22531070.965 4845341.319 10899378.775 10 0 61022 57600.00000 0 -23690141.707 5030318.192 7952788.077 10 0 61022 58500.00000 0 -24461739.257 5265778.602 4851389.418 10 0 61022 59400.00000 0 -24830996.879 5496201.680 1655523.519 10 0 61022 60300.00000 0 -24796545.386 5665079.232 -1572586.387 10 0 61022 61200.00000 0 -24370501.412 5717549.987 -4770056.309 10 0 61022 62100.00000 0 -23577904.534 5602971.513 -7874578.923 10 0 61022 63000.00000 0 -22455626.800 5277318.928 -10825651.140 10 0 61022 63900.00000 0 -21050800.895 4705306.791 -13565766.344 10 0 61022 64800.00000 0 -19418833.916 3862142.438 -16041546.633 10 0 61022 65700.00000 0 -17621091.402 2734834.860 -18204791.812 10 0 61022 66600.00000 0 -15722350.295 1323002.425 -20013423.793 10 0 61022 67500.00000 0 -13788129.060 -360855.670 -21432307.574 10 0 61022 68400.00000 0 -11882008.064 -2291636.377 -22433932.781 10 0 61022 69300.00000 0 -10063053.235 -4432446.889 -22998942.839 10 0 61022 70200.00000 0 -8383451.103 -6735921.823 -23116502.169 10 0 61022 71100.00000 0 -6886453.836 -9145988.280 -22784495.180 10 0 61022 72000.00000 0 -5604719.321 -11600004.829 -22009554.191 10 0 61022 72900.00000 0 -4559114.279 -14031184.993 -20806916.817 10 0 61022 73800.00000 0 -3758028.615 -16371204.164 -19200116.555 10 0 61022 74700.00000 0 -3197227.573 -18552881.420 -17220513.464 10 0 61022 75600.00000 0 -2860245.632 -20512824.880 -14906674.769 10 0 61022 76500.00000 0 -2719303.397 -22193931.010 -12303617.930 10 0 61022 77400.00000 0 -2736706.967 -23547634.523 -9461931.295 10 0 61022 78300.00000 0 -2866669.240 -24535816.102 -6436789.587 10 0 61022 79200.00000 0 -3057475.177 -25132289.571 -3286883.434 10 0 61022 80100.00000 0 -3253898.913 -25323807.609 -73283.657 10 0 61022 81000.00000 0 -3399770.327 -25110545.302 3141737.795 10 0 61022 81900.00000 0 -3440582.715 -24506042.385 6295907.777 10 0 61022 82800.00000 0 -3326031.671 -23536607.542 9328149.845 10 0 61022 83700.00000 0 -3012378.434 -22240210.268 12179757.551 10 0 61022 84600.00000 0 -2464538.321 -20664906.897 14795521.141 10 0 61022 85500.00000 0 -1657806.480 -18866866.483 17124786.648 10 0 61023 0.00000 0 -579148.304 -16908078.669 19122427.645 10 0 61023 900.00000 0 772000.839 -14853837.373 20749712.801 10 0 61023 1800.00000 0 2383459.584 -12770106.824 21975050.633 10 0 61023 2700.00000 0 4230563.199 -10720875.116 22774601.327 10 0 61023 3600.00000 0 6276954.367 -8765606.879 23132741.401 10 0 61023 4500.00000 0 8475871.830 -6956899.110 23042373.423 10 0 61023 5400.00000 0 10771885.402 -5338437.059 22505074.259 10 0 61023 6300.00000 0 13103007.451 -3943334.749 21531078.280 10 0 61023 7200.00000 0 15403094.959 -2792929.054 20139094.766 10 0 61023 8100.00000 0 17604443.923 -1896077.704 18355961.705 10 0 61023 9000.00000 0 19640469.226 -1248990.801 16216141.184 10 0 61023 9900.00000 0 21448358.824 -835603.322 13761064.649 10 0 61023 10800.00000 0 22971591.480 -628473.402 11038339.375 10 0 61023 11700.00000 0 24162212.258 -590168.908 8100830.455 10 0 61023 12600.00000 0 24982769.461 -675083.958 5005635.495 10 0 61023 13500.00000 0 25407830.535 -831608.417 1812971.775 10 0 61023 14400.00000 0 25425011.901 -1004557.950 -1415002.185 10 0 61023 15300.00000 0 25035478.095 -1137760.659 -4615406.882 10 0 61023 16200.00000 0 24253888.221 -1176689.241 -7725878.980 10 0 61023 17100.00000 0 23107791.314 -1071025.339 -10685799.872 10 0 61023 18000.00000 0 21636495.894 -777045.522 -13437490.135 10 0 61023 18900.00000 0 19889461.598 -259725.888 -15927345.225 10 0 61023 19800.00000 0 17924281.214 505525.534 -18106889.031 10 0 61023 20700.00000 0 15804338.895 1531583.347 -19933723.886 10 0 61023 21600.00000 0 13596243.950 2818821.741 -21372358.011 10 0 61023 22500.00000 0 11367148.762 4354867.656 -22394894.275 10 0 61023 23400.00000 0 9182063.982 6114900.972 -22981567.127 10 0 61023 24300.00000 0 7101283.602 8062489.279 -23121117.951 10 0 61023 25200.00000 0 5178027.401 10150922.117 -22811002.419 10 0 61023 26100.00000 0 3456398.546 12324988.644 -22057426.834 10 0 61023 27000.00000 0 1969740.362 14523124.085 -20875213.807 10 0 61023 27900.00000 0 739459.150 16679835.192 -19287500.874 10 0 61023 28800.00000 0 -225639.846 18728303.295 -17325278.783 10 0 61023 29700.00000 0 -929477.922 20603056.492 -15026779.155 10 0 61023 30600.00000 0 -1388287.020 22242599.785 -12436723.917 10 0 61023 31500.00000 0 -1629672.190 23591893.910 -9605451.526 10 0 61023 32400.00000 0 -1691193.880 24604580.135 -6587937.141 10 0 61023 33300.00000 0 -1618531.367 25244858.982 -3442725.838 10 0 61023 34200.00000 0 -1463305.936 25488945.354 -230799.569 10 0 61023 35100.00000 0 -1280656.389 25326040.240 2985600.338 10 0 61023 36000.00000 0 -1126669.491 24758779.283 6144172.631 10 0 61023 36900.00000 0 -1055773.808 23803140.225 9183754.684 10 0 61023 37800.00000 0 -1118206.659 22487813.602 12045497.530 10 0 61023 38700.00000 0 -1357660.631 20853063.183 14673995.337 10 0 61023 39600.00000 0 -1809208.544 18949123.583 17018348.293 10 0 61023 40500.00000 0 -2497594.075 16834201.455 19033139.232 10 0 61023 41400.00000 0 -3435960.107 14572162.679 20679306.016 10 0 61023 42300.00000 0 -4625068.782 12230000.892 21924893.633 10 0 61023 43200.00000 0 -6053047.024 9875191.391 22745672.115 10 0 61023 44100.00000 0 -7695669.702 7573039.165 23125608.742 10 0 61023 45000.00000 0 -9517170.508 5384130.078 23057185.458 10 0 61023 45900.00000 0 -11471548.807 3361990.052 22541555.061 10 0 61023 46800.00000 0 -13504320.256 1551048.757 21588532.436 10 0 61023 47700.00000 0 -15554640.278 -15007.984 20216419.965 10 0 61023 48600.00000 0 -17557713.735 -1314428.657 18451669.152 10 0 61023 49500.00000 0 -19447391.711 -2338079.702 16328383.539 10 0 61023 50400.00000 0 -21158847.834 -3089593.513 13887671.029 10 0 61023 51300.00000 0 -22631222.543 -3584974.291 11176856.832 10 0 61023 52200.00000 0 -23810124.255 -3851678.061 8248571.182 10 0 61023 53100.00000 0 -24649881.732 -3927205.425 5159728.897 10 0 61023 54000.00000 0 -25115451.785 -3857266.631 1970420.389 10 0 61023 54900.00000 0 -25183900.657 -3693596.971 -1257264.011 10 0 61023 55800.00000 0 -24845395.169 -3491515.890 -4460452.745 10 0 61023 56700.00000 0 -24103660.508 -3307334.463 -7576729.855 10 0 61023 57600.00000 0 -22975884.283 -3195722.722 -10545364.472 10 0 61023 58500.00000 0 -21492070.183 -3207150.204 -13308507.454 10 0 61023 59400.00000 0 -19693868.281 -3385510.003 -15812330.439 10 0 61023 60300.00000 0 -17632931.361 -3766028.705 -18008083.895 10 0 61023 61200.00000 0 -15368866.971 -4373552.131 -19853052.619 10 0 61023 62100.00000 0 -12966871.931 -5221280.540 -21311389.583 10 0 61023 63000.00000 0 -10495149.282 -6310007.493 -22354811.832 10 0 61023 63900.00000 0 -8022216.525 -7627894.907 -22963145.153 10 0 61023 64800.00000 0 -5614218.106 -9150793.882 -23124707.593 10 0 61023 65700.00000 0 -3332354.350 -10843097.734 -22836525.232 10 0 61023 66600.00000 0 -1230533.691 -12659091.087 -22104377.006 10 0 61023 67500.00000 0 646654.950 -14544738.170 -20942668.782 10 0 61023 68400.00000 0 2265566.583 -16439835.072 -19374140.076 10 0 61023 69300.00000 0 3604655.522 -18280435.648 -17429410.050 10 0 61023 70200.00000 0 4655115.790 -20001449.519 -15146372.277 10 0 61023 71100.00000 0 5420982.226 -21539303.639 -12569450.628 10 0 61023 72000.00000 0 5918690.521 -22834556.388 -9748731.109 10 0 61023 72900.00000 0 6176116.972 -23834355.377 -6738986.752 10 0 61023 73800.00000 0 6231140.319 -24494636.767 -3598614.575 10 0 61023 74700.00000 0 6129787.760 -24781974.843 -388505.221 10 0 61023 75600.00000 0 5924044.411 -24675005.182 2829132.947 10 0 61023 76500.00000 0 5669419.236 -24165362.624 5991972.816 10 0 61023 77400.00000 0 5422370.325 -23258095.362 9038767.706 10 0 61023 78300.00000 0 5237698.055 -21971538.246 11910528.123 10 0 61023 79200.00000 0 5166015.708 -20336650.656 14551654.007 10 0 61023 80100.00000 0 5251403.741 -18395846.393 16911001.374 10 0 61023 81000.00000 0 5529346.126 -16201363.814 18942863.613 10 0 61023 81900.00000 0 6025035.398 -13813243.212 20607849.366 10 0 61023 82800.00000 0 6752117.846 -11296994.474 21873640.846 10 0 61023 83700.00000 0 7711932.059 -8721050.609 22715618.596 10 0 61023 84600.00000 0 8893273.853 -6154111.469 23117341.032 10 0 61023 85500.00000 0 10272698.865 -3662486.557 23070869.571 10 0 61024 0.00000 0 11815351.883 -1307546.118 22576932.839 10 0 61024 900.00000 0 13476291.158 856615.938 21644925.746 10 0 61024 1800.00000 0 15202252.343 2785207.831 20292743.187 10 0 61024 2700.00000 0 16933783.046 4444374.776 18546449.378 10 0 61024 3600.00000 0 18607658.378 5812371.806 16439788.318 10 0 61024 4500.00000 0 20159478.322 6880226.765 14013543.173 10 0 61024 5400.00000 0 21526338.607 7651865.290 11314755.674 10 0 61024 6300.00000 0 22649463.028 8143692.307 8395819.542 10 0 61024 7200.00000 0 23476685.993 8383647.430 5313464.894 10 0 61024 8100.00000 0 23964679.820 8409774.138 2127653.109 10 0 61024 9000.00000 0 24080831.520 8268363.480 -1099596.063 10 0 61024 9900.00000 0 23804688.318 8011751.507 -4305421.579 10 0 61024 10800.00000 0 23128909.334 7695864.753 -7427357.521 10 0 61024 11700.00000 0 22059681.840 7377619.166 -10404563.438 10 0 61024 12600.00000 0 20616583.403 7112284.330 -13179023.061 10 0 61024 13500.00000 0 18831895.029 6950926.411 -15696686.661 10 0 61024 14400.00000 0 16749393.943 6938039.793 -17908533.539 10 0 61024 15300.00000 0 14422676.883 7109469.140 -19771533.002 10 0 61024 16200.00000 0 11913084.758 7490710.932 -21249484.600 10 0 61024 17100.00000 0 9287316.227 8095667.019 -22313721.160 10 0 61024 18000.00000 0 6614830.709 8925903.199 -22943661.181 10 0 61024 18900.00000 0 3965149.764 9970444.108 -23127200.490 10 0 61024 19800.00000 0 1405169.632 11206112.820 -22860936.386 10 0 61024 20700.00000 0 -1003403.298 12598400.420 -22150220.901 10 0 61024 21600.00000 0 -3206387.958 14102828.486 -21009043.213 10 0 61024 22500.00000 0 -5159139.011 15666746.750 -19459744.468 10 0 61024 23400.00000 0 -6828150.062 17231490.070 -17532571.441 10 0 61024 24300.00000 0 -8192184.968 18734803.968 -15265078.468 10 0 61024 25200.00000 0 -9242892.352 20113436.924 -12701389.778 10 0 61024 26100.00000 0 -9984880.078 21305790.864 -9891337.012 10 0 61024 27000.00000 0 -10435249.035 22254519.001 -6889488.876 10 0 61024 27900.00000 0 -10622607.990 22908962.573 -3754091.889 10 0 61024 28800.00000 0 -10585612.785 23227324.897 -545942.761 10 0 61024 29700.00000 0 -10371092.809 23178492.177 2672785.879 10 0 61024 30600.00000 0 -10031844.628 22743425.369 5839743.920 10 0 61024 31500.00000 0 -9624186.257 21916065.223 8893603.537 10 0 61024 32400.00000 0 -9205375.267 20703712.925 11775237.617 10 0 61024 33300.00000 0 -8830999.297 19126870.367 14428854.735 10 0 61024 34200.00000 0 -8552448.465 17218546.454 16803069.500 10 0 61024 35100.00000 0 -8414575.578 15023057.720 18851888.479 10 0 61024 36000.00000 0 -8453642.128 12594372.224 20535593.529 10 0 61024 36900.00000 0 -8695636.177 9994064.383 21821506.285 10 0 61024 37800.00000 0 -9155032.895 7288964.261 22684619.709 10 0 61024 38700.00000 0 -9834050.266 4548597.269 23108084.915 10 0 61024 39600.00000 0 -10722432.146 1842518.912 23083543.951 10 0 61024 40500.00000 0 -11797769.140 -762346.344 22611301.847 10 0 61024 41400.00000 0 -13026345.583 -3204253.035 21700333.918 10 0 61024 42300.00000 0 -14364479.018 -5428964.671 20368127.187 10 0 61024 43200.00000 0 -15760297.979 -7391769.571 18640357.696 10 0 61024 44100.00000 0 -17155885.294 -9059099.008 16550408.471 10 0 61024 45000.00000 0 -18489698.347 -10409680.193 14138736.004 10 0 61024 45900.00000 0 -19699165.588 -11435175.760 11452096.150 10 0 61024 46800.00000 0 -20723350.422 -12140282.678 8542643.348 10 0 61024 47700.00000 0 -21505570.046 -12542286.158 5466919.934 10 0 61024 48600.00000 0 -21995858.018 -12670087.256 2284754.963 10 0 61024 49500.00000 0 -22153165.371 -12562745.296 -941905.838 10 0 61024 50400.00000 0 -21947205.726 -12267597.188 -4150215.457 10 0 61024 51300.00000 0 -21359864.730 -11838034.031 -7277661.562 10 0 61024 52200.00000 0 -20386112.601 -11331030.313 -10263297.613 10 0 61024 53100.00000 0 -19034379.801 -10804531.829 -13048943.611 10 0 61024 54000.00000 0 -17326378.836 -10314814.528 -15580331.667 10 0 61024 54900.00000 0 -15296378.973 -9913927.745 -17808172.822 10 0 61024 55800.00000 0 -12989964.094 -9647331.448 -19689123.402 10 0 61024 56700.00000 0 -10462325.907 -9551828.587 -21186631.520 10 0 61024 57600.00000 0 -7776164.368 -9653880.667 -22271647.166 10 0 61024 58500.00000 0 -4999283.638 -9968378.020 -22923182.275 10 0 61024 59400.00000 0 -2201984.424 -10497916.580 -23128710.502 10 0 61024 60300.00000 0 545638.327 -11232611.227 -22884399.781 10 0 61024 61200.00000 0 3176379.806 -12150452.923 -22195174.093 10 0 61024 62100.00000 0 5628480.524 -13218193.806 -21074604.316 10 0 61024 63000.00000 0 7847946.870 -14392722.209 -19544631.215 10 0 61024 63900.00000 0 9790541.800 -15622869.052 -17635126.882 10 0 61024 64800.00000 0 11423364.532 -16851569.117 -15383303.858 10 0 61024 65700.00000 0 12725955.506 -18018285.988 -12832983.995 10 0 61024 66600.00000 0 13690882.789 -19061598.616 -10033741.672 10 0 61024 67500.00000 0 14323787.777 -19921840.895 -7039938.279 10 0 61024 68400.00000 0 14642890.589 -20543683.623 -3909666.788 10 0 61024 69300.00000 0 14677977.937 -20878550.756 -703626.923 10 0 61024 70200.00000 0 14468917.692 -20886768.961 2516047.396 10 0 61024 71100.00000 0 14063763.870 -20539360.698 5686985.893 10 0 61024 72000.00000 0 13516532.568 -19819405.968 8747782.232 10 0 61024 72900.00000 0 12884742.818 -18722915.855 11639174.047 10 0 61024 73800.00000 0 12226825.798 -17259181.207 14305180.605 10 0 61024 74700.00000 0 11599511.077 -15450581.529 16694176.827 10 0 61024 75600.00000 0 11055299.265 -13331861.360 18759883.813 10 0 61024 76500.00000 0 10640126.667 -10948903.199 20462257.621 10 0 61024 77400.00000 0 10391319.565 -8357046.744 21768259.925 10 0 61024 78300.00000 0 10335923.651 -5619022.675 22652496.360 10 0 61024 79200.00000 0 10489478.743 -2802584.966 23097710.647 10 0 61024 80100.00000 0 10855290.579 22061.781 23095125.067 10 0 61024 81000.00000 0 11424231.070 2784935.088 22644620.430 10 0 61024 81900.00000 0 12175076.595 5418938.094 21754751.440 10 0 61024 82800.00000 0 13075371.663 7862404.523 20442596.145 10 0 61024 83700.00000 0 14082783.359 10061420.300 18733441.107 10 0 61024 84600.00000 0 15146891.338 11971825.781 16660306.932 10 0 61024 85500.00000 0 16211339.563 13560815.297 14263321.843 10 0 61025 0.00000 0 17216260.219 14808066.989 11588954.343 10 0 61025 900.00000 0 18100868.815 15706355.960 8689117.221 10 0 61025 1800.00000 0 18806119.665 16261623.033 5620163.230 10 0 61025 2700.00000 0 19277310.871 16492498.168 2441786.926 10 0 61025 3600.00000 0 19466526.293 16429296.782 -784142.282 10 0 61025 4500.00000 0 19334810.269 16112532.272 -3994793.787 10 0 61025 5400.00000 0 18853981.305 15591008.068 -7127611.223 10 0 61025 6300.00000 0 18008006.215 14919570.820 -10121544.301 10 0 61025 7200.00000 0 16793874.902 14156621.075 -12918251.515 10 0 61025 8100.00000 0 15221937.392 13361488.223 -15463248.869 10 0 61025 9000.00000 0 13315687.775 12591782.287 -17706981.028 10 0 61025 9900.00000 0 11111003.438 11900835.975 -19605793.010 10 0 61025 10800.00000 0 8654871.230 11335346.247 -21122782.987 10 0 61025 11700.00000 0 6003653.981 10933315.783 -22228519.422 10 0 61025 12600.00000 0 3220970.172 10722381.581 -22901608.791 10 0 61025 13500.00000 0 375275.663 10718601.035 -23129103.466 10 0 61025 14400.00000 0 -2462751.406 10925746.120 -22906742.631 10 0 61025 15300.00000 0 -5222913.482 11335134.561 -22239022.497 10 0 61025 16200.00000 0 -7838171.995 11926004.006 -21139095.535 10 0 61025 17100.00000 0 -10247190.465 12666412.312 -19628501.617 10 0 61025 18000.00000 0 -12396637.523 13514624.929 -17736737.218 10 0 61025 18900.00000 0 -14243155.440 14420930.044 -15500671.780 10 0 61025 19800.00000 0 -15754913.960 15329804.331 -12963823.142 10 0 61025 20700.00000 0 -16912686.676 16182337.668 -10175506.537 10 0 61025 21600.00000 0 -17710407.184 16918814.533 -7189873.952 10 0 61025 22500.00000 0 -18155183.980 17481343.451 -4064862.590 10 0 61025 23400.00000 0 -18266775.516 17816424.021 -861072.871 10 0 61025 24300.00000 0 -18076549.251 17877343.854 2359402.400 10 0 61025 25200.00000 0 -17625969.843 17626305.004 5534175.259 10 0 61025 26100.00000 0 -16964680.990 17036190.825 8601763.391 10 0 61025 27000.00000 0 -16148262.151 16091899.282 11502771.753 10 0 61025 27900.00000 0 -15235754.515 14791186.729 14181032.892 10 0 61025 28800.00000 0 -14287059.985 13144986.472 16584684.602 10 0 61025 29700.00000 0 -13360321.893 11177188.093 18667164.991 10 0 61025 30600.00000 0 -12509396.711 8923885.660 20388106.646 10 0 61025 31500.00000 0 -11781522.115 6432124.726 21714113.400 10 0 61025 32400.00000 0 -11215278.571 3758198.551 22619405.409 10 0 61025 33300.00000 0 -10838929.462 965562.398 23086320.536 10 0 61025 34200.00000 0 -10669209.248 -1877549.500 23105662.443 10 0 61025 35100.00000 0 -10710610.724 -4700707.390 22676888.469 10 0 61025 36000.00000 0 -10955201.940 -7433964.500 21808133.010 10 0 61025 36900.00000 0 -11382981.477 -10010520.923 20516064.972 10 0 61025 37800.00000 0 -11962758.409 -12369263.370 18825580.806 10 0 61025 38700.00000 0 -12653521.376 -14457075.906 16769337.592 10 0 61025 39600.00000 0 -13406240.450 -16230825.678 14387133.743 10 0 61025 40500.00000 0 -14166026.980 -17658940.699 11725147.965 10 0 61025 41400.00000 0 -14874561.035 -18722513.348 8835050.068 10 0 61025 42300.00000 0 -15472684.122 -19415882.839 5773000.188 10 0 61025 43200.00000 0 -15903047.252 -19746671.681 2598555.556 10 0 61025 44100.00000 0 -16112701.435 -19735274.262 -626493.750 10 0 61025 45000.00000 0 -16055519.599 -19413819.009 -3839336.686 10 0 61025 45900.00000 0 -15694345.711 -18824648.222 -6977376.135 10 0 61025 46800.00000 0 -15002778.267 -18018380.418 -9979461.411 10 0 61025 47700.00000 0 -13966510.826 -17051638.108 -12787092.860 10 0 61025 48600.00000 0 -12584171.245 -15984538.325 -15345573.682 10 0 61025 49500.00000 0 -10867622.722 -14878053.350 -17605085.279 10 0 61025 50400.00000 0 -8841712.954 -13791354.505 -19521664.195 10 0 61025 51300.00000 0 -6543481.238 -12779252.342 -21058061.072 10 0 61025 52200.00000 0 -4020856.505 -11889842.023 -22184464.728 10 0 61025 53100.00000 0 -1330900.788 -11162453.582 -22879077.481 10 0 61025 54000.00000 0 1462328.269 -10625993.286 -23128531.086 10 0 61025 54900.00000 0 4290206.471 -10297745.385 -22928136.020 10 0 61025 55800.00000 0 7082162.319 -10182683.663 -22281960.208 10 0 61025 56700.00000 0 9768377.434 -10273320.473 -21202736.681 10 0 61025 57600.00000 0 12282456.214 -10550098.128 -19711602.945 10 0 61025 58500.00000 0 14563954.278 -10982304.690 -17837677.990 10 0 61025 59400.00000 0 16560661.589 -11529474.180 -15617485.930 10 0 61025 60300.00000 0 18230546.614 -12143211.082 -13094238.023 10 0 61025 61200.00000 0 19543282.157 -12769361.334 -10316987.479 10 0 61025 62100.00000 0 20481291.136 -13350437.740 -7339673.730 10 0 61025 63000.00000 0 21040270.603 -13828197.292 -4220074.840 10 0 61025 63900.00000 0 21229174.033 -14146261.702 -1018688.423 10 0 61025 64800.00000 0 21069654.413 -14252670.924 2202437.346 10 0 61025 65700.00000 0 20594992.999 -14102262.373 5380900.248 10 0 61025 66600.00000 0 19848559.812 -13658775.970 8455145.203 10 0 61025 67500.00000 0 18881871.211 -12896596.713 11365647.406 10 0 61025 68400.00000 0 17752326.340 -11802061.562 14056055.202 10 0 61025 69300.00000 0 16520717.331 -10374275.574 16474271.340 10 0 61025 70200.00000 0 15248617.214 -8625402.450 18573452.568 10 0 61025 71100.00000 0 13995754.319 -6580416.354 20312909.177 10 0 61025 72000.00000 0 12817482.353 -4276323.952 21658887.887 10 0 61025 72900.00000 0 11762451.196 -1760887.359 22585223.688 10 0 61025 73800.00000 0 10870575.213 909100.900 23073848.483 10 0 61025 74700.00000 0 10171383.596 3669921.335 23115146.854 10 0 61025 75600.00000 0 9682821.594 6453324.155 22708151.852 10 0 61025 76500.00000 0 9410552.996 9189121.701 21860576.436 10 0 61025 77400.00000 0 9347793.600 11807870.705 20588678.967 10 0 61025 78300.00000 0 9475683.468 14243534.348 18916964.146 10 0 61025 79200.00000 0 9764183.313 16436014.316 16877723.690 10 0 61025 80100.00000 0 10173458.376 18333447.807 14510424.197 10 0 61025 81000.00000 0 10655692.418 19894173.665 11860952.671 10 0 61025 81900.00000 0 11157256.017 21088285.091 8980733.183 10 0 61025 82800.00000 0 11621137.826 21898703.229 5925731.079 10 0 61025 83700.00000 0 11989535.795 22321725.924 2755363.780 10 0 61025 84600.00000 0 12206497.947 22367027.904 -468660.504 10 0 61025 85500.00000 0 12220499.668 22057111.985 -3683552.840 99